FW7074 Bolivia NC US current weather conditions

sailwx.info

Wind from 115

Air temperature 27.2° C
Dewpoint 23.7° C

Last reported at 2020-Jul-06 04:57 UTC.
Time now 2020-Jul-06 05:27 UTC

Location: N 33°57' W 078°13'.
View on Google Maps.

See reports from other nearby stations

  
Tides and Currents Weather Stations Pressure Air Temp Water Temp Dewpoint Dewpoint Depression Visibility Wind Speed Wind Dir Waves Ship Positions
date/time (UTC)wind fromknots sea level pressurealtimeterstation pressurevisibilityair tempwater tempwave heightnotes
2020-Jul-06 04:57 115 27.2
2020-Jul-06 04:52 134 0 gusting 2 27.2
2020-Jul-06 04:47 111 0 gusting 2 27.2
2020-Jul-06 04:42 146 0 gusting 2 27.2
2020-Jul-06 04:37 145 0 gusting 2 27.2
2020-Jul-06 04:32 121 0 gusting 2 27.2
2020-Jul-06 04:27 104 0 gusting 3 27.2
2020-Jul-06 04:22 131 0 gusting 3 27.2
2020-Jul-06 04:17 124 0 gusting 2 27.2
2020-Jul-06 04:12 120 0 gusting 3 27.2
2020-Jul-06 04:07 103 0 gusting 3 27.2
2020-Jul-06 04:02 144 0 gusting 3 27.2
2020-Jul-06 03:57 212 0 gusting 3 27.2
2020-Jul-06 03:52 153 0 gusting 3 27.2
2020-Jul-06 03:47 173 1 gusting 5 27.8
2020-Jul-06 03:42 150 1 gusting 5 27.8
2020-Jul-06 03:37 160 1 gusting 5 27.8
2020-Jul-06 03:32 193 1 gusting 5 27.8
2020-Jul-06 03:27 205 1 gusting 5 27.8
2020-Jul-06 03:22 133 1 gusting 5 27.8
2020-Jul-06 03:17 181 1 gusting 3 27.8
2020-Jul-06 03:12 190 1 gusting 3 27.8
2020-Jul-06 03:07 049 1 gusting 3 27.2
2020-Jul-06 03:02 194 1 gusting 3 27.8
2020-Jul-06 02:57 118 0 gusting 3 27.2
2020-Jul-06 02:52 203 0 gusting 2 27.2
2020-Jul-06 02:47 212 0 gusting 2 27.2
2020-Jul-06 02:42 163 0 gusting 3 27.2
2020-Jul-06 02:37 156 0 gusting 4 27.8
2020-Jul-06 02:32 134 0 gusting 4 27.2
2020-Jul-06 02:27 122 0 gusting 6 27.2
2020-Jul-06 02:22 118 0 gusting 6 27.8
2020-Jul-06 02:17 136 1 gusting 6 27.8
2020-Jul-06 02:12 184 0 gusting 4 27.8
2020-Jul-06 02:07 111 0 gusting 4 27.8
2020-Jul-06 02:02 196 1 gusting 3 27.2
2020-Jul-06 01:57 188 0 gusting 3 27.2
2020-Jul-06 01:52 142 0 gusting 3 27.2
2020-Jul-06 01:47 197 0 gusting 3 27.2
2020-Jul-06 01:42 191 0 gusting 3 27.8
2020-Jul-06 01:37 075 1 gusting 6 27.8
2020-Jul-06 01:32 185 1 gusting 6 27.8
2020-Jul-06 01:27 224 1 gusting 6 27.8
2020-Jul-06 01:22 209 1 gusting 6 27.8
2020-Jul-06 01:17 143 1 gusting 6 27.8
2020-Jul-06 01:12 118 0 gusting 5 27.8
2020-Jul-06 01:07 136 0 gusting 4 27.8
2020-Jul-06 01:02 108 0 gusting 4 27.8
2020-Jul-06 00:57 094 0 gusting 5 27.8
2020-Jul-06 00:52 139 0 gusting 5 27.8
2020-Jul-06 00:47 181 0 gusting 5 27.8
2020-Jul-06 00:42 102 0 gusting 4 27.8
2020-Jul-06 00:37 164 1 gusting 6 27.8
2020-Jul-06 00:32 155 1 gusting 6 27.8
2020-Jul-06 00:27 049 1 gusting 6 27.8
2020-Jul-06 00:22 125 0 gusting 4 27.8
2020-Jul-06 00:17 160 0 gusting 4 28.3
2020-Jul-06 00:12 135 0 gusting 4 28.3
2020-Jul-06 00:07 200 0 gusting 2 28.3
2020-Jul-06 00:02 162 0 gusting 3 28.3
2020-Jul-05 23:57 115 0 gusting 3 28.3
2020-Jul-05 23:52 101 1 gusting 3 28.9
2020-Jul-05 23:47 176 1 gusting 3 28.9
2020-Jul-05 23:42 149 0 gusting 2 29.4
2020-Jul-05 23:37 105 0 gusting 2 29.4
2020-Jul-05 23:32 110 0 gusting 2 30.0
2020-Jul-05 23:27 159 0 gusting 3 30.0
2020-Jul-05 23:22 217 0 gusting 5 30.0
2020-Jul-05 23:17 204 0 gusting 5 30.0
2020-Jul-05 23:12 184 0 gusting 5 30.0
2020-Jul-05 23:07 196 0 gusting 5 30.0
2020-Jul-05 23:02 158 1 gusting 5 30.0
2020-Jul-05 22:57 061 0 gusting 5 30.0
2020-Jul-05 22:52 148 1 gusting 5 30.6
2020-Jul-05 22:47 248 1 gusting 5 30.6
2020-Jul-05 22:42 214 1 gusting 5 30.6
2020-Jul-05 22:37 211 1 gusting 5 30.6
2020-Jul-05 22:32 145 1 gusting 3 30.6
2020-Jul-05 22:27 221 0 gusting 4 30.6
2020-Jul-05 22:22 150 1 gusting 4 30.6
2020-Jul-05 22:17 136 1 gusting 4 30.6
2020-Jul-05 22:12 127 1 gusting 3 30.6
2020-Jul-05 22:07 143 1 gusting 4 30.6
2020-Jul-05 22:02 221 1 gusting 5 30.6
2020-Jul-05 21:57 123 1 gusting 6 30.6
2020-Jul-05 21:52 221 1 gusting 6 30.6
2020-Jul-05 21:47 122 2 gusting 6 30.6
2020-Jul-05 21:42 117 2 gusting 6 30.6
2020-Jul-05 21:37 141 1 gusting 7 30.6
2020-Jul-05 21:32 109 2 gusting 7 30.6
2020-Jul-05 21:27 236 2 gusting 7 30.6
2020-Jul-05 21:22 146 1 gusting 5 31.1
2020-Jul-05 21:17 205 1 gusting 6 31.1
2020-Jul-05 21:12 210 1 gusting 6 31.1
2020-Jul-05 21:07 226 2 gusting 6 31.1
2020-Jul-05 21:02 034 2 gusting 6 31.1
2020-Jul-05 20:57 195 2 gusting 5 31.1
2020-Jul-05 20:52 138 2 gusting 5 31.1
2020-Jul-05 20:47 106 1 gusting 5 31.7
2020-Jul-05 20:42 181 1 gusting 5 31.7
2020-Jul-05 20:37 231 1 gusting 6 31.7
2020-Jul-05 20:32 013 1 gusting 6 31.7
2020-Jul-05 20:27 186 2 gusting 6 31.7
2020-Jul-05 20:22 160 1 gusting 4 32.2
2020-Jul-05 20:17 218 1 gusting 4 32.2
2020-Jul-05 20:12 120 1 gusting 5 32.2
2020-Jul-05 20:07 157 1 gusting 7 32.2
2020-Jul-05 20:02 152 1 gusting 7 32.2
2020-Jul-05 19:57 224 1 gusting 7 32.2
2020-Jul-05 19:52 149 2 gusting 5 32.2
2020-Jul-05 19:47 146 1 gusting 5 32.2
2020-Jul-05 19:42 141 1 gusting 6 32.2
2020-Jul-05 19:37 136 1 gusting 7 32.2
2020-Jul-05 19:32 219 2 gusting 7 32.2
2020-Jul-05 19:27 153 2 gusting 5 32.2
2020-Jul-05 19:22 141 1 gusting 7 32.2
2020-Jul-05 19:17 200 1 gusting 7 32.2
2020-Jul-05 19:12 186 2 gusting 7 32.2
2020-Jul-05 19:07 145 2 gusting 4 32.8
2020-Jul-05 19:02 144 1 gusting 4 32.8
2020-Jul-05 18:57 126 0 gusting 6 32.8
2020-Jul-05 18:52 233 1 gusting 6 32.8
2020-Jul-05 18:47 263 1 gusting 6 32.8
2020-Jul-05 18:42 152 1 gusting 5 32.8
2020-Jul-05 18:37 136 1 gusting 5 32.8
2020-Jul-05 18:32 211 1 gusting 5 32.8
2020-Jul-05 18:27 127 1 gusting 5 32.8
2020-Jul-05 18:22 229 1 gusting 6 32.8
2020-Jul-05 18:17 133 1 gusting 6 32.8
2020-Jul-05 18:12 182 1 gusting 4 32.8
2020-Jul-05 18:07 132 1 gusting 5 32.8
2020-Jul-05 18:02 156 1 gusting 5 32.8
2020-Jul-05 17:57 236 1 gusting 5 32.2
2020-Jul-05 17:52 154 1 gusting 3 32.8
2020-Jul-05 17:47 222 1 gusting 5 32.8
2020-Jul-05 17:42 113 1 gusting 5 32.8
2020-Jul-05 17:37 226 1 gusting 5 32.8
2020-Jul-05 17:32 164 2 gusting 5 32.2
2020-Jul-05 17:27 133 2 gusting 5 32.2
2020-Jul-05 17:22 175 1 gusting 5 32.8
2020-Jul-05 17:17 341 1 gusting 5 32.8
2020-Jul-05 17:12 245 1 gusting 5 32.8
2020-Jul-05 17:07 162 1 gusting 5 32.8
2020-Jul-05 17:02 110 1 gusting 5 32.8
2020-Jul-05 16:57 160 2 gusting 4 32.2
2020-Jul-05 16:52 108 1 gusting 5 32.2
2020-Jul-05 16:47 147 1 gusting 8 32.2
2020-Jul-05 16:42 216 1 gusting 8 32.2
2020-Jul-05 16:37 117 1 gusting 8 32.2
2020-Jul-05 16:32 087 0 gusting 5 32.2
2020-Jul-05 16:27 128 1 gusting 5 32.2
2020-Jul-05 16:22 083 1 gusting 5 31.7
2020-Jul-05 16:17 160 1 gusting 5 31.7
2020-Jul-05 16:12 160 1 gusting 5 31.7
2020-Jul-05 16:07 214 1 gusting 4 31.7
2020-Jul-05 16:02 198 1 gusting 5 31.7
2020-Jul-05 15:57 131 2 gusting 5 31.7
2020-Jul-05 15:52 089 2 gusting 5 31.7
2020-Jul-05 15:47 230 1 gusting 5 31.7
2020-Jul-05 15:42 139 1 gusting 5 31.7
2020-Jul-05 15:37 199 1 gusting 5 31.7
2020-Jul-05 15:32 149 1 gusting 5 31.7
2020-Jul-05 15:27 197 1 gusting 5 31.7
2020-Jul-05 15:22 117 1 gusting 5 31.7
2020-Jul-05 15:17 217 0 gusting 4 32.2
2020-Jul-05 15:12 146 0 gusting 1 32.2
2020-Jul-05 15:07 190 0 gusting 2 32.2
2020-Jul-05 15:02 250 0 gusting 3 31.7
2020-Jul-05 14:57 219 0 gusting 3 31.7
2020-Jul-05 14:52 049 0 gusting 2 31.7
2020-Jul-05 14:47 010 0 gusting 2 31.7
2020-Jul-05 14:42 262 0 gusting 2 31.1
2020-Jul-05 14:37 047 31.1
2020-Jul-05 14:32 098 0 gusting 4 31.1
2020-Jul-05 14:27 340 0 gusting 4 30.6
2020-Jul-05 14:22 321 0 gusting 4 30.6
2020-Jul-05 14:17 350 0 gusting 3 30.6
2020-Jul-05 14:12 277 0 gusting 3 30.6
2020-Jul-05 14:07 191 0 gusting 3 30.0
2020-Jul-05 14:02 053 1 gusting 3 30.0
2020-Jul-05 13:57 013 0 gusting 2 30.0
2020-Jul-05 13:52 356 0 gusting 3 30.0
2020-Jul-05 13:47 001 0 gusting 4 29.4
2020-Jul-05 13:42 345 0 gusting 4 29.4
2020-Jul-05 13:37 326 0 gusting 5 29.4
2020-Jul-05 13:32 178 0 gusting 5 29.4
2020-Jul-05 13:27 252 0 gusting 3 28.9
2020-Jul-05 13:22 269 0 gusting 3 28.9
2020-Jul-05 13:17 112 0 gusting 3 28.9
2020-Jul-05 13:12 348 0 gusting 3 28.3
2020-Jul-05 13:07 293 28.3
2020-Jul-05 13:02 285 28.3
2020-Jul-05 12:57 353 28.3
2020-Jul-05 12:52 013 27.8
2020-Jul-05 12:47 324 27.8
2020-Jul-05 12:42 292 0 gusting 2 27.2
2020-Jul-05 12:37 310 0 gusting 2 26.7
2020-Jul-05 12:32 26.7
2020-Jul-05 12:27 351 0 gusting 2 26.7
2020-Jul-05 12:22 009 0 gusting 2 26.1
2020-Jul-05 12:17 255 26.1
2020-Jul-05 12:12 224 25.6
2020-Jul-05 12:07 158 25.6
2020-Jul-05 12:02 293 0 gusting 1 25.0
2020-Jul-05 11:57 347 0 gusting 3 24.4
2020-Jul-05 11:52 009 0 gusting 3 24.4
2020-Jul-05 11:47 348 0 gusting 3 24.4
2020-Jul-05 11:42 005 0 gusting 3 23.9
2020-Jul-05 11:37 003 23.9
2020-Jul-05 11:32 282 23.3
2020-Jul-05 11:27 338 23.3
2020-Jul-05 11:22 339 23.3
2020-Jul-05 11:17 339 23.3
2020-Jul-05 11:12 327 23.3
2020-Jul-05 11:07 327 22.8
2020-Jul-05 11:02 327 22.8
2020-Jul-05 10:57 327 22.8
2020-Jul-05 10:52 327 22.8
2020-Jul-05 10:47 327 22.8
2020-Jul-05 10:42 327 22.8
2020-Jul-05 10:37 327 22.8
2020-Jul-05 10:32 327 22.8
2020-Jul-05 10:27 327 22.8
2020-Jul-05 10:22 327 22.8
2020-Jul-05 10:17 327 22.8
2020-Jul-05 10:12 327 22.8
2020-Jul-05 10:07 327 22.8
2020-Jul-05 10:02 327 22.8
2020-Jul-05 09:57 327 22.8
2020-Jul-05 09:52 327 22.8
2020-Jul-05 09:47 327 22.8
2020-Jul-05 09:42 327 22.8
2020-Jul-05 09:37 327 22.8
2020-Jul-05 09:32 327 22.8
2020-Jul-05 09:27 326 22.8
2020-Jul-05 09:22 328 22.8
2020-Jul-05 09:17 349 22.8
2020-Jul-05 09:12 345 22.8
2020-Jul-05 09:07 031 22.8
2020-Jul-05 09:02 030 22.8
2020-Jul-05 08:57 030 23.3
2020-Jul-05 08:52 030 23.3
2020-Jul-05 08:47 030 23.3
2020-Jul-05 08:42 031 23.3
2020-Jul-05 08:37 031 23.3
2020-Jul-05 08:32 031 23.3
2020-Jul-05 08:27 031 23.3
2020-Jul-05 08:22 031 23.3
2020-Jul-05 08:17 031 23.3
2020-Jul-05 08:12 030 23.3
2020-Jul-05 08:07 030 23.3
2020-Jul-05 08:02 030 23.3
2020-Jul-05 07:57 030 23.3
2020-Jul-05 07:52 030 23.3
2020-Jul-05 07:47 030 23.9
2020-Jul-05 07:42 030 23.9
2020-Jul-05 07:37 030 23.9
2020-Jul-05 07:32 031 23.9
2020-Jul-05 07:27 031 23.9
2020-Jul-05 07:22 031 23.9
2020-Jul-05 07:17 031 24.4
2020-Jul-05 07:12 030 24.4
2020-Jul-05 07:07 030 24.4
2020-Jul-05 07:02 030 24.4
2020-Jul-05 06:57 030 24.4
2020-Jul-05 06:52 031 24.4
2020-Jul-05 06:47 030 24.4
2020-Jul-05 06:42 030 25.0
2020-Jul-05 06:37 030 25.0
2020-Jul-05 06:32 031 25.0
2020-Jul-05 06:27 031 25.0
2020-Jul-05 06:22 031 25.0
2020-Jul-05 06:17 030 25.0
2020-Jul-05 06:12 031 25.6
2020-Jul-05 06:07 031 25.6
2020-Jul-05 06:02 018 25.6
2020-Jul-05 05:57 017 25.6
2020-Jul-05 05:52 019 25.6
2020-Jul-05 05:47 019 25.6
2020-Jul-05 05:42 058 25.6
2020-Jul-05 05:37 058 25.6
2020-Jul-05 05:32 056 26.1
2020-Jul-05 05:27 056 26.1
2020-Jul-05 05:22 023 26.1
2020-Jul-05 05:17 002 26.1
2020-Jul-05 05:12 049 26.1
2020-Jul-05 05:07 077 26.1
2020-Jul-05 05:02 131 26.1
2020-Jul-05 04:57 101 26.1
2020-Jul-05 04:52 077 26.1
2020-Jul-05 04:47 030 26.7
2020-Jul-05 04:42 342 26.7
2020-Jul-05 04:37 046 26.7
2020-Jul-05 04:32 270 26.7
2020-Jul-05 04:27 087 26.7
2020-Jul-05 04:22 225 26.7
2020-Jul-05 04:17 040 26.7
2020-Jul-05 04:12 060 26.7
2020-Jul-05 04:07 352 0 gusting 1 26.7
2020-Jul-05 04:02 119 26.7
2020-Jul-05 03:57 131 26.7
2020-Jul-05 03:52 105 26.7
2020-Jul-05 03:47 060 26.7
2020-Jul-05 03:42 089 26.7
2020-Jul-05 03:37 128 26.7
2020-Jul-05 03:32 300 0 gusting 1 26.7
2020-Jul-05 03:27 065 26.7
2020-Jul-05 03:22 055 26.7
2020-Jul-05 03:17 091 26.7
2020-Jul-05 03:12 112 26.7
2020-Jul-05 03:07 034 27.2
2020-Jul-05 03:02 032 27.2
2020-Jul-05 02:57 247 27.2
2020-Jul-05 02:52 129 26.7
2020-Jul-05 02:47 109 27.2
2020-Jul-05 02:42 352 27.2
2020-Jul-05 02:37 288 27.2
2020-Jul-05 02:32 203 27.2
2020-Jul-05 02:27 015 27.2
2020-Jul-05 02:22 054 0 gusting 3 27.2
2020-Jul-05 02:17 264 0 gusting 3 27.2
2020-Jul-05 02:12 122 27.8
2020-Jul-05 02:07 328 27.2
2020-Jul-05 02:02 212 27.8
2020-Jul-05 01:57 117 27.8
2020-Jul-05 01:52 118 0 gusting 1 27.8
2020-Jul-05 01:47 114 0 gusting 3 27.8
2020-Jul-05 01:42 059 0 gusting 3 27.8
2020-Jul-05 01:37 049 0 gusting 3 27.8
2020-Jul-05 01:32 075 0 gusting 2 27.8
2020-Jul-05 01:27 117 0 gusting 2 27.8
2020-Jul-05 01:22 101 27.8
2020-Jul-05 01:07 108 0 gusting 4 27.8
2020-Jul-05 01:02 239 0 gusting 2 27.8
2020-Jul-05 00:57 067 0 gusting 2 28.3
2020-Jul-05 00:52 197 0 gusting 2 28.3
2020-Jul-05 00:47 046 0 gusting 3 28.3
2020-Jul-05 00:42 120 0 gusting 3 28.3
2020-Jul-05 00:37 037 0 gusting 2 28.3
2020-Jul-05 00:32 122 0 gusting 2 28.3
2020-Jul-05 00:27 026 0 gusting 4 28.3
2020-Jul-05 00:22 069 0 gusting 4 28.9
2020-Jul-05 00:17 096 0 gusting 4 28.9
2020-Jul-05 00:12 155 0 gusting 4 28.9
2020-Jul-05 00:07 139 0 gusting 4 29.4
2020-Jul-05 00:02 183 0 gusting 4 29.4
2020-Jul-04 23:57 234 0 gusting 3 29.4
2020-Jul-04 23:52 150 0 gusting 3 29.4
2020-Jul-04 23:47 098 0 gusting 3 30.0
2020-Jul-04 23:42 160 0 gusting 2 30.6
2020-Jul-04 23:37 115 0 gusting 2 30.6
2020-Jul-04 23:32 127 0 gusting 2 30.6
2020-Jul-04 23:27 103 0 gusting 3 30.0
2020-Jul-04 23:22 059 0 gusting 3 30.0
2020-Jul-04 23:17 172 0 gusting 3 30.6
2020-Jul-04 23:12 132 0 gusting 2 30.0
2020-Jul-04 23:07 332 0 gusting 1 29.4
2020-Jul-04 23:02 111 0 gusting 1 28.9
2020-Jul-04 22:57 117 28.3
2020-Jul-04 22:52 136 28.3
2020-Jul-04 22:47 136 28.3
2020-Jul-04 22:42 190 28.3
2020-Jul-04 22:37 148 28.3
2020-Jul-04 22:32 148 27.8
2020-Jul-04 22:27 148 27.8
2020-Jul-04 22:22 148 27.8
2020-Jul-04 22:17 148 27.8
2020-Jul-04 22:12 149 27.8
2020-Jul-04 22:07 148 27.8
2020-Jul-04 22:02 148 27.8
2020-Jul-04 21:57 067 27.8
2020-Jul-04 21:52 049 0 gusting 3 28.3
2020-Jul-04 21:47 352 0 gusting 5 28.3
2020-Jul-04 21:42 022 0 gusting 5 28.3
2020-Jul-04 21:37 139 0 gusting 5 28.9
2020-Jul-04 21:32 301 0 gusting 2 29.4
2020-Jul-04 21:27 032 29.4
2020-Jul-04 21:22 111 29.4
2020-Jul-04 21:17 134 30.0
2020-Jul-04 21:12 152 30.0
2020-Jul-04 21:07 098 29.4
2020-Jul-04 21:02 218 0 gusting 1 29.4
2020-Jul-04 20:57 225 0 gusting 1 30.0
2020-Jul-04 20:52 093 0 gusting 2 30.6
2020-Jul-04 20:47 064 0 gusting 2 30.6
2020-Jul-04 20:42 047 0 gusting 3 31.1
2020-Jul-04 20:37 149 0 gusting 3 31.7
2020-Jul-04 20:32 093 0 gusting 4 32.2
2020-Jul-04 20:27 166 0 gusting 4 32.8
2020-Jul-04 20:22 220 0 gusting 4 33.3
2020-Jul-04 20:17 206 1 gusting 3 33.3
2020-Jul-04 20:12 158 1 gusting 4 33.3
2020-Jul-04 20:07 235 1 gusting 5 32.8
2020-Jul-04 20:02 347 1 gusting 5 33.3
2020-Jul-04 19:57 037 1 gusting 5 33.3
2020-Jul-04 19:52 107 1 gusting 5 33.3
2020-Jul-04 19:47 183 1 gusting 5 33.3
2020-Jul-04 19:42 207 1 gusting 5 33.3
2020-Jul-04 19:37 075 1 gusting 5 33.9
2020-Jul-04 19:32 263 1 gusting 6 33.9
2020-Jul-04 19:27 207 1 gusting 6 33.9
2020-Jul-04 19:22 231 1 gusting 6 33.9
2020-Jul-04 19:17 116 1 gusting 7 33.9
2020-Jul-04 19:12 111 1 gusting 7 33.9
2020-Jul-04 19:07 242 1 gusting 7 33.9
2020-Jul-04 19:02 221 1 gusting 6 33.9
2020-Jul-04 18:57 079 1 gusting 6 33.9
2020-Jul-04 18:52 226 1 gusting 5 33.9
2020-Jul-04 18:47 071 1 gusting 5 33.9
2020-Jul-04 18:42 190 1 gusting 5 33.9
2020-Jul-04 18:37 030 2 gusting 5 33.3
2020-Jul-04 18:32 226 1 gusting 5 33.9
2020-Jul-04 18:27 192 1 gusting 4 33.9
2020-Jul-04 18:22 112 1 gusting 6 33.9
2020-Jul-04 18:17 221 1 gusting 6 33.9
2020-Jul-04 18:12 164 1 gusting 6 33.9
2020-Jul-04 18:07 129 1 gusting 4 33.9
2020-Jul-04 18:02 174 1 gusting 4 33.9
2020-Jul-04 17:57 084 0 gusting 6 34.4
2020-Jul-04 17:52 110 0 gusting 6 34.4
2020-Jul-04 17:47 061 1 gusting 6 33.9
2020-Jul-04 17:42 209 1 gusting 5 33.9
2020-Jul-04 17:37 106 0 gusting 4 33.9
2020-Jul-04 17:32 168 0 gusting 6 34.4
2020-Jul-04 17:27 203 1 gusting 6 34.4
2020-Jul-04 17:22 224 1 gusting 5 34.4
2020-Jul-04 17:17 231 1 gusting 5 34.4
2020-Jul-04 17:12 167 0 gusting 3 34.4
2020-Jul-04 17:07 110 0 gusting 4 34.4
2020-Jul-04 17:02 152 1 gusting 4 34.4
2020-Jul-04 16:57 201 1 gusting 4 34.4
2020-Jul-04 16:52 226 1 gusting 4 34.4
2020-Jul-04 16:47 205 0 gusting 4 33.9
2020-Jul-04 16:42 198 1 gusting 5 33.9
2020-Jul-04 16:37 214 1 gusting 5 33.9
2020-Jul-04 16:32 096 1 gusting 5 33.3
2020-Jul-04 16:27 212 1 gusting 5 33.3
2020-Jul-04 16:22 175 1 gusting 5 33.9
2020-Jul-04 16:17 103 1 gusting 4 33.9
2020-Jul-04 16:12 197 0 gusting 4 33.9
2020-Jul-04 16:07 296 0 gusting 3 33.9
2020-Jul-04 16:02 131 0 gusting 3 33.9
2020-Jul-04 15:57 335 0 gusting 3 33.9
2020-Jul-04 15:52 287 0 gusting 2 33.9
2020-Jul-04 15:47 298 0 gusting 2 33.9
2020-Jul-04 15:42 144 0 gusting 2 33.3
2020-Jul-04 15:37 220 0 gusting 2 33.3
2020-Jul-04 15:32 255 0 gusting 3 33.3
2020-Jul-04 15:27 238 0 gusting 3 33.3
2020-Jul-04 15:22 077 1 gusting 3 33.3
2020-Jul-04 15:17 084 0 gusting 2 33.3
2020-Jul-04 15:12 222 0 gusting 3 33.3
2020-Jul-04 15:07 351 0 gusting 3 32.8
2020-Jul-04 15:02 244 0 gusting 3 32.8
2020-Jul-04 14:57 217 0 gusting 3 32.8
2020-Jul-04 14:52 278 0 gusting 3 32.2
2020-Jul-04 14:47 129 0 gusting 3 32.2
2020-Jul-04 14:42 302 0 gusting 4 32.2
2020-Jul-04 14:37 335 0 gusting 4 31.7
2020-Jul-04 14:32 250 1 gusting 4 31.7
2020-Jul-04 14:27 031 1 gusting 4 31.7
2020-Jul-04 14:22 296 1 gusting 4 31.7
2020-Jul-04 14:17 256 1 gusting 4 31.1
2020-Jul-04 14:12 345 1 gusting 4 31.1
2020-Jul-04 14:07 044 0 gusting 1 31.1
2020-Jul-04 14:02 248 31.1
2020-Jul-04 13:57 239 31.1
2020-Jul-04 13:52 030 0 gusting 3 30.6
2020-Jul-04 13:47 320 1 gusting 5 30.0
2020-Jul-04 13:42 348 1 gusting 5 30.0
2020-Jul-04 13:37 005 1 gusting 5 29.4
2020-Jul-04 13:32 349 1 gusting 4 29.4
2020-Jul-04 13:27 347 1 gusting 4 28.9
2020-Jul-04 13:22 352 1 gusting 5 28.9
2020-Jul-04 13:17 323 1 gusting 5 28.3
2020-Jul-04 13:12 342 2 gusting 5 28.3
2020-Jul-04 13:07 310 1 gusting 5 27.8
2020-Jul-04 13:02 356 1 gusting 5 27.8
2020-Jul-04 12:57 315 1 gusting 5 27.8
2020-Jul-04 12:52 013 2 gusting 5 27.2
2020-Jul-04 12:47 335 1 gusting 4 27.2
2020-Jul-04 12:42 330 1 gusting 4 26.7
2020-Jul-04 12:37 331 1 gusting 3 26.7
2020-Jul-04 12:32 333 0 gusting 5 26.7
2020-Jul-04 12:27 323 0 gusting 5 26.1
2020-Jul-04 12:22 348 1 gusting 5 26.1
2020-Jul-04 12:17 349 0 gusting 3 25.6
2020-Jul-04 12:12 320 0 gusting 3 25.6
2020-Jul-04 12:07 344 0 gusting 3 25.6
2020-Jul-04 12:02 330 0 gusting 4 25.0
2020-Jul-04 11:57 343 0 gusting 4 24.4
2020-Jul-04 11:52 336 0 gusting 4 24.4
2020-Jul-04 11:47 018 0 gusting 4 24.4
2020-Jul-04 11:42 295 0 gusting 4 23.9
2020-Jul-04 11:37 274 0 gusting 2 23.9
2020-Jul-04 11:32 259 0 gusting 2 23.3
2020-Jul-04 11:27 326 0 gusting 2 23.3
2020-Jul-04 11:22 314 0 gusting 1 23.3
2020-Jul-04 11:17 336 23.3
2020-Jul-04 11:12 325 22.8
2020-Jul-04 11:07 343 22.8
2020-Jul-04 11:04 288 22.8
2020-Jul-04 10:57 348 22.8
2020-Jul-04 10:52 333 22.2
2020-Jul-04 10:47 263 22.2
2020-Jul-04 10:42 343 22.2
2020-Jul-04 10:37 332 22.2
2020-Jul-04 10:32 333 22.2
2020-Jul-04 10:27 351 0 gusting 2 22.2
2020-Jul-04 10:22 347 22.2
2020-Jul-04 10:17 354 22.2
2020-Jul-04 10:12 317 21.7
2020-Jul-04 10:07 279 21.7
2020-Jul-04 10:02 279 21.7
2020-Jul-04 09:57 279 22.2
2020-Jul-04 09:52 279 22.2
2020-Jul-04 09:47 323 22.2
2020-Jul-04 09:42 352 21.7
2020-Jul-04 09:37 001 21.7
2020-Jul-04 09:32 344 21.7
2020-Jul-04 09:27 020 21.7
2020-Jul-04 09:22 020 21.7
2020-Jul-04 09:17 020 21.7
2020-Jul-04 09:12 024 21.7
2020-Jul-04 09:07 354 21.7
2020-Jul-04 09:02 341 21.7
2020-Jul-04 08:57 343 21.7
2020-Jul-04 08:52 357 21.7
2020-Jul-04 08:47 357 21.7
2020-Jul-04 08:42 357 21.7
2020-Jul-04 08:37 357 21.7
2020-Jul-04 08:32 356 21.7
2020-Jul-04 08:27 032 21.7
2020-Jul-04 08:22 079 21.7
2020-Jul-04 08:17 079 21.7
2020-Jul-04 08:12 079 21.7
2020-Jul-04 08:07 079 21.7
2020-Jul-04 08:02 079 21.7
2020-Jul-04 07:57 079 21.7
2020-Jul-04 07:52 079 21.7
2020-Jul-04 07:47 079 22.2
2020-Jul-04 07:42 079 22.2
2020-Jul-04 07:37 079 22.2
2020-Jul-04 07:32 079 22.2
2020-Jul-04 07:27 079 22.2
2020-Jul-04 07:22 079 22.2
2020-Jul-04 07:17 079 22.2
2020-Jul-04 07:12 079 22.2
2020-Jul-04 07:07 079 22.8
2020-Jul-04 07:02 079 22.8
2020-Jul-04 06:57 079 22.8
2020-Jul-04 06:52 079 22.8
2020-Jul-04 06:47 079 22.8
2020-Jul-04 06:42 079 22.8
2020-Jul-04 06:37 079 22.8
2020-Jul-04 06:32 079 22.8
2020-Jul-04 06:27 079 22.8
2020-Jul-04 06:22 079 22.8
2020-Jul-04 06:18 079 22.8
2020-Jul-04 06:12 079 22.8
2020-Jul-04 06:07 079 22.8
2020-Jul-04 06:02 079 22.8
2020-Jul-04 05:57 090 22.8
2020-Jul-04 05:52 090 22.8
2020-Jul-04 05:47 090 22.8
2020-Jul-04 05:42 090 22.8
2020-Jul-04 05:37 090 22.8
2020-Jul-04 05:32 090 22.8
2020-Jul-04 05:27 090 22.8
2020-Jul-04 05:22 090 22.8
2020-Jul-04 05:17 090 22.8
2020-Jul-04 05:12 090 23.3
2020-Jul-04 05:07 090 23.3
2020-Jul-04 05:02 090 23.3